EW4504 Weather Reports


time (UTC)temp
C
wind
direction
speed
KPH
gust
KPH
rain 1hr
cm
rain 24hr
cm
rain mn
cm
humidity
%
barometer
mb
20260505202027 26 135 6.4 19.3 0.00 0.00 0.00 38 1013.4
20260505201545 26 169 6.4 17.7 0.00 0.00 0.00 39 1013.5
20260505201028 26 259 6.4 14.5 0.00 0.00 0.00 37 1013.5
20260505200531 26 175 4.8 17.7 0.00 0.00 0.00 37 1013.6
20260505200058 26 255 8.0 19.3 0.00 0.00 0.00 39 1013.8
20260505195530 26 185 4.8 19.3 0.00 0.00 0.00 38 1013.9
20260505195029 26 139 8.0 19.3 0.00 0.00 0.00 39 1014.0
20260505194547 26 149 9.7 17.7 0.00 0.00 0.00 38 1014.2
20260505194031 26 152 8.0 17.7 0.00 0.00 0.00 37 1014.2
20260505193530 26 75 4.8 20.9 0.00 0.00 0.00 38 1014.4
20260505193051 26 186 4.8 22.5 0.00 0.00 0.00 37 1014.3
20260505192533 26 159 8.0 22.5 0.00 0.00 0.00 38 1014.5
20260505192030 26 240 9.7 22.5 0.00 0.00 0.00 38 1014.3
20260505191537 26 205 9.7 22.5 0.00 0.00 0.00 37 1014.3
20260505191030 26 218 9.7 22.5 0.00 0.00 0.00 37 1014.4
20260505190528 26 150 6.4 22.5 0.00 0.00 0.00 36 1014.5
20260505190037 26 214 9.7 17.7 0.00 0.00 0.00 38 1014.5
20260505185528 26 178 6.4 24.1 0.00 0.00 0.00 38 1014.4
20260505185030 26 188 6.4 24.1 0.00 0.00 0.00 38 1014.5
20260505184542 26 98 9.7 20.9 0.00 0.00 0.00 36 1014.5
20260505184031 26 217 6.4 16.1 0.00 0.00 0.00 38 1014.7
20260505183531 26 128 6.4 29.0 0.00 0.00 0.00 38 1014.6
20260505183041 26 223 12.9 29.0 0.00 0.00 0.00 38 1014.6
20260505182527 26 146 8.0 17.7 0.00 0.00 0.00 38 1014.6
20260505182028 26 239 6.4 16.1 0.00 0.00 0.00 37 1014.8
20260505181543 26 218 6.4 20.9 0.00 0.00 0.00 38 1014.8
20260505181029 26 217 11.3 30.6 0.00 0.00 0.00 37 1015.0
20260505180529 27 201 11.3 30.6 0.00 0.00 0.00 37 1015.1
20260505180104 26 229 8.0 20.9 0.00 0.00 0.00 39 1015.0
20260505175530 26 209 9.7 17.7 0.00 0.00 0.00 39 1015.2
20260505175034 26 222 8.0 27.4 0.00 0.00 0.00 39 1015.2
20260505174558 26 198 11.3 27.4 0.00 0.00 0.00 39 1015.2
20260505174030 26 212 8.0 22.5 0.00 0.00 0.00 38 1015.2
20260505173533 26 215 3.2 19.3 0.00 0.00 0.00 39 1015.4
20260505173045 26 209 9.7 19.3 0.00 0.00 0.00 40 1015.5
20260505172531 26 114 4.8 16.1 0.00 0.00 0.00 42 1015.4
20260505172035 26 229 6.4 17.7 0.00 0.00 0.00 41 1015.5
20260505171540 26 209 9.7 17.7 0.00 0.00 0.00 41 1015.5
20260505171031 26 205 8.0 19.3 0.00 0.00 0.00 41 1015.5
20260505170531 26 249 9.7 27.4 0.00 0.00 0.00 41 1015.6
20260505170039 26 207 9.7 27.4 0.00 0.00 0.00 39 1015.5
20260505165534 26 218 14.5 27.4 0.00 0.00 0.00 39 1015.6
20260505165033 26 193 12.9 27.4 0.00 0.00 0.00 39 1015.5
20260505164545 26 196 9.7 25.7 0.00 0.00 0.00 41 1015.5
20260505164030 25 198 8.0 25.7 0.00 0.00 0.00 40 1015.4
20260505163531 25 180 9.7 22.5 0.00 0.00 0.00 41 1015.4
20260505163041 26 210 6.4 22.5 0.00 0.00 0.00 42 1015.4
20260505162530 26 217 9.7 20.9 0.00 0.00 0.00 44 1015.4
20260505162029 26 205 9.7 22.5 0.00 0.00 0.00 44 1015.4
20260505161540 25 201 9.7 22.5 0.00 0.00 0.00 45 1015.5
20260505161033 25 180 9.7 27.4 0.00 0.00 0.00 44 1015.5
20260505160530 25 219 8.0 27.4 0.00 0.00 0.00 43 1015.6
20260505153043 23 167 3.2 11.3 0.00 0.00 0.00 52 1015.8
20260505152535 23 146 3.2 12.9 0.00 0.00 0.00 53 1015.9
20260505152029 22 171 4.8 12.9 0.00 0.00 0.00 54 1015.7
20260505151540 22 271 0.0 6.4 0.00 0.00 0.00 57 1015.6
20260505151033 22 267 1.6 6.4 0.00 0.00 0.00 56 1015.8
20260505150534 22 0 1.6 6.4 0.00 0.00 0.00 56 1015.8
20260505140529 18 300 1.6 4.8 0.00 0.00 0.00 66 1016.0
20260505125031 14 53 1.6 4.8 0.00 0.00 0.00 77 1015.5
20260505124540 13 54 1.6 4.8 0.00 0.00 0.00 78 1015.4
20260505124029 13 0 0.0 0.0 0.00 0.00 0.00 79 1015.4
20260505123533 13 0 0.0 3.2 0.00 0.00 0.00 80 1015.5
20260505123038 13 0 0.0 4.8 0.00 0.00 0.00 80 1015.4
20260505122536 12 0 1.6 6.4 0.00 0.00 0.00 80 1015.3
20260505122035 12 56 1.6 6.4 0.00 0.00 0.00 81 1015.2
20260505121536 12 156 1.6 6.4 0.00 0.00 0.00 83 1015.3
20260505121033 11 0 0.0 4.8 0.00 0.00 0.00 84 1015.3
20260505120530 11 0 0.0 0.0 0.00 0.00 0.00 85 1015.3
20260505120044 11 0 0.0 0.0 0.00 0.00 0.00 85 1015.2
20260505115531 11 0 0.0 0.0 0.00 0.00 0.00 85 1015.2
20260505115035 10 0 0.0 0.0 0.00 0.00 0.00 85 1015.2
20260505114540 10 0 0.0 0.0 0.00 0.00 0.00 85 1015.1
20260505114032 10 0 0.0 0.0 0.00 0.00 0.00 85 1015.0
20260505113530 10 0 0.0 0.0 0.00 0.00 0.00 85 1014.8
20260505113037 10 0 0.0 0.0 0.00 0.00 0.00 85 1014.7
20260505112534 10 0 0.0 0.0 0.00 0.00 0.00 85 1014.6
20260505112032 10 0 0.0 0.0 0.00 0.00 0.00 85 1014.5
20260505111544 9 0 0.0 3.2 0.00 0.00 0.00 84 1014.4
20260505111032 9 0 0.0 3.2 0.00 0.00 0.00 84 1014.3
20260505110530 9 173 1.6 3.2 0.00 0.00 0.00 84 1014.3
20260505102032 10 0 0.0 3.2 0.00 0.00 0.00 83 1014.2
20260505101537 10 0 0.0 3.2 0.00 0.00 0.00 83 1014.1
20260505101029 10 173 1.6 3.2 0.00 0.00 0.00 82 1014.1
20260505100529 10 0 0.0 1.6 0.00 0.00 0.00 82 1014.2
20260505100044 10 0 0.0 1.6 0.00 0.00 0.00 82 1014.3
20260505095532 10 0 0.0 3.2 0.00 0.00 0.00 82 1014.4
20260505095033 10 0 0.0 3.2 0.00 0.00 0.00 81 1014.5
20260505094544 10 0 0.0 0.0 0.00 0.00 0.00 82 1014.5
20260505094031 10 0 0.0 1.6 0.00 0.00 0.00 82 1014.3
20260505093529 10 0 0.0 1.6 0.00 0.00 0.00 82 1014.2
20260505093043 10 0 0.0 1.6 0.00 0.00 0.00 81 1014.2
20260505092531 10 0 0.0 1.6 0.00 0.00 0.00 81 1014.1
20260505092033 10 0 0.0 1.6 0.00 0.00 0.00 82 1014.2
20260505091601 10 0 0.0 1.6 0.00 0.00 0.00 81 1014.0
20260505091029 10 0 0.0 0.0 0.00 0.00 0.00 81 1014.2
20260505090530 10 0 0.0 0.0 0.00 0.00 0.00 81 1014.3
20260505090044 10 0 0.0 0.0 0.00 0.00 0.00 81 1014.5
20260505085532 10 0 0.0 0.0 0.00 0.00 0.00 81 1014.4
20260505085030 10 0 0.0 0.0 0.00 0.00 0.00 81 1014.4
20260505084540 10 0 0.0 0.0 0.00 0.00 0.00 81 1014.5
20260505084029 10 0 0.0 0.0 0.00 0.00 0.00 81 1014.5
20260505083529 10 0 0.0 0.0 0.00 0.00 0.00 81 1014.4
20260505083039 11 0 0.0 0.0 0.00 0.00 0.00 80 1014.4
20260505082529 11 0 0.0 0.0 0.00 0.00 0.00 80 1014.4
20260505082029 11 0 0.0 0.0 0.00 0.00 0.00 80 1014.4
20260505081554 11 0 0.0 0.0 0.00 0.00 0.00 80 1014.3
20260505081029 11 0 0.0 0.0 0.00 0.00 0.00 80 1014.4
20260505080529 11 0 0.0 0.0 0.00 0.00 0.00 80 1014.4
20260505080050 11 0 0.0 0.0 0.00 0.00 0.00 80 1014.4
20260505075529 11 0 0.0 0.0 0.00 0.00 0.00 79 1014.4
20260505075029 11 0 0.0 0.0 0.00 0.00 0.00 79 1014.4
20260505074548 11 0 0.0 0.0 0.00 0.00 0.00 79 1014.3
20260505074028 11 0 0.0 0.0 0.00 0.00 0.00 78 1014.4
20260505073529 11 0 0.0 0.0 0.00 0.00 0.00 78 1014.4
20260505073043 11 0 0.0 0.0 0.00 0.00 0.00 78 1014.4
20260505072533 11 0 0.0 0.0 0.00 0.00 0.00 78 1014.5
20260505072030 11 0 0.0 0.0 0.00 0.00 0.00 78 1014.5
20260505071550 11 0 0.0 0.0 0.00 0.00 0.00 77 1014.4
20260505071029 11 0 0.0 0.0 0.00 0.00 0.00 77 1014.5
20260505070532 11 0 0.0 0.0 0.00 0.00 0.00 77 1014.4
20260505070049 11 0 0.0 0.0 0.00 0.00 0.00 77 1014.5
20260505065529 11 0 0.0 0.0 0.00 0.00 0.00 76 1014.4
20260505065029 11 0 0.0 0.0 0.00 0.00 0.00 77 1014.5
20260505064542 11 0 0.0 0.0 0.00 0.00 0.00 76 1014.5
20260505064029 11 0 0.0 0.0 0.00 0.00 0.00 77 1014.5
20260505063529 11 0 0.0 0.0 0.00 0.00 0.00 76 1014.5
20260505063051 11 0 0.0 0.0 0.00 0.00 0.00 76 1014.5
20260505062531 11 0 0.0 0.0 0.00 0.00 0.00 76 1014.5
20260505062029 11 0 0.0 0.0 0.00 0.00 0.00 76 1014.6
20260505061604 11 0 0.0 0.0 0.00 0.00 0.00 75 1014.6
20260505061031 12 0 0.0 0.0 0.00 0.00 0.00 75 1014.7
20260505060533 12 0 0.0 0.0 0.00 0.00 0.00 75 1014.7
20260505060048 12 0 0.0 0.0 0.00 0.00 0.00 74 1014.6
20260505055530 12 0 0.0 0.0 0.00 0.00 0.00 74 1014.7
20260505055030 12 0 0.0 0.0 0.00 0.00 0.00 74 1014.7
20260505054544 12 0 0.0 0.0 0.00 0.00 0.00 74 1014.8
20260505054032 12 0 0.0 0.0 0.00 0.00 0.00 73 1014.8
20260505053529 12 0 0.0 0.0 0.00 0.00 0.00 73 1014.8
20260505053046 12 0 0.0 0.0 0.00 0.00 0.00 73 1014.8
20260505052533 12 0 0.0 0.0 0.00 0.00 0.00 72 1014.7
20260505052032 13 0 0.0 0.0 0.00 0.00 0.00 72 1014.8
20260505051601 13 0 0.0 0.0 0.00 0.00 0.00 71 1014.7
20260505051033 13 0 0.0 0.0 0.00 0.00 0.00 71 1014.7
20260505050532 13 0 0.0 0.0 0.00 0.00 0.00 71 1014.8
20260505041543 13 0 0.0 0.0 0.00 0.00 0.00 68 1014.7
20260505041031 14 0 0.0 0.0 0.00 0.00 0.00 68 1014.6
20260505040536 14 0 0.0 0.0 0.00 0.00 0.00 67 1014.6
20260505040042 15 0 0.0 0.0 0.00 0.00 0.00 65 1014.6
20260505035530 15 0 0.0 0.0 0.00 0.00 0.00 65 1014.6
20260505035034 15 0 0.0 0.0 0.00 0.00 0.00 65 1014.7
20260505034541 15 0 0.0 0.0 0.00 0.00 0.00 65 1014.7
20260505034029 15 0 0.0 0.0 0.00 0.00 0.00 65 1014.8
20260505033533 15 0 0.0 0.0 0.00 0.00 0.00 65 1014.8
20260505033042 15 0 0.0 0.0 0.00 0.00 0.00 64 1014.8
20260505032532 15 0 0.0 0.0 0.00 0.00 0.00 64 1014.8
20260505032029 15 0 0.0 0.0 0.00 0.00 0.00 63 1014.8
20260505031546 15 0 0.0 0.0 0.00 0.00 0.00 63 1014.7
20260505031031 15 0 0.0 0.0 0.00 0.00 0.00 61 1014.7
20260505030533 16 0 0.0 0.0 0.00 0.00 0.00 61 1014.7
20260505030043 16 0 0.0 0.0 0.00 0.00 0.00 60 1014.7
20260505025530 16 0 0.0 0.0 0.00 0.00 0.00 58 1014.6
20260505025031 16 0 0.0 0.0 0.00 0.00 0.00 58 1014.7
20260505024548 16 0 0.0 0.0 0.00 0.00 0.00 58 1014.7
20260505024031 16 0 0.0 0.0 0.00 0.00 0.00 57 1014.9
20260505023532 17 0 0.0 0.0 0.00 0.00 0.00 57 1014.8
20260505023043 17 0 0.0 0.0 0.00 0.00 0.00 57 1014.7
20260505022533 17 0 0.0 0.0 0.00 0.00 0.00 54 1014.7
20260505022032 17 0 0.0 0.0 0.00 0.00 0.00 54 1014.5
20260505021544 17 0 0.0 0.0 0.00 0.00 0.00 53 1014.5
20260505021031 17 0 0.0 0.0 0.00 0.00 0.00 53 1014.4
20260505020531 17 0 0.0 0.0 0.00 0.00 0.00 52 1014.4
20260505020040 18 0 0.0 0.0 0.00 0.00 0.00 52 1014.4
20260505015530 18 0 0.0 0.0 0.00 0.00 0.00 49 1014.3
20260505015031 18 0 0.0 0.0 0.00 0.00 0.00 49 1014.3
20260505014539 18 0 0.0 0.0 0.00 0.00 0.00 49 1014.3
20260505014031 19 0 0.0 0.0 0.00 0.00 0.00 49 1014.4
20260505013529 19 0 0.0 0.0 0.00 0.00 0.00 48 1014.4
20260505013040 20 0 0.0 0.0 0.00 0.00 0.00 47 1014.2
20260505012532 20 0 0.0 0.0 0.00 0.00 0.00 47 1014.2
20260505012031 20 0 0.0 0.0 0.00 0.00 0.00 45 1014.3
20260505011544 20 0 0.0 0.0 0.00 0.00 0.00 44 1014.3
20260505011032 21 0 0.0 0.0 0.00 0.00 0.00 43 1014.3
20260505010531 21 0 0.0 0.0 0.00 0.00 0.00 43 1014.2
20260505010053 21 0 0.0 0.0 0.00 0.00 0.00 42 1014.2
20260505005532 21 0 0.0 0.0 0.00 0.00 0.00 42 1014.2
20260505005032 21 0 0.0 0.0 0.00 0.00 0.00 41 1014.2
20260505004541 21 0 0.0 0.0 0.00 0.00 0.00 41 1014.1
20260505004031 22 0 0.0 0.0 0.00 0.00 0.00 40 1014.0
20260505003531 22 0 0.0 6.4 0.00 0.00 0.00 40 1014.0
20260505003038 22 0 0.0 6.4 0.00 0.00 0.00 40 1014.0
20260505002533 22 0 1.6 6.4 0.00 0.00 0.00 40 1014.0
20260505002030 22 0 1.6 6.4 0.00 0.00 0.00 39 1014.0
20260505001544 22 190 1.6 8.0 0.00 0.00 0.00 39 1014.0
20260505001030 22 184 3.2 12.9 0.00 0.00 0.00 39 1013.9
20260505000531 22 198 6.4 12.9 0.00 0.00 0.00 39 1013.9
20260505000047 23 190 3.2 12.9 0.00 0.00 0.00 39 1013.8
20260504235531 23 212 6.4 14.5 0.00 0.00 0.00 39 1013.8
20260504235031 23 185 6.4 16.1 0.00 0.00 0.00 39 1013.8
20260504234540 23 202 8.0 16.1 0.00 0.00 0.00 38 1013.8
20260504234031 23 196 8.0 11.3 0.00 0.00 0.00 39 1013.7
20260504233529 23 209 4.8 14.5 0.00 0.00 0.00 38 1013.8
20260504233100 23 212 4.8 16.1 0.00 0.00 0.00 38 1013.9
20260504232530 23 217 6.4 16.1 0.00 0.00 0.00 38 1013.8
20260504232029 23 202 6.4 16.1 0.00 0.00 0.00 37 1013.8
20260504231543 23 188 6.4 12.9 0.00 0.00 0.00 37 1013.8
20260504231029 23 187 6.4 12.9 0.00 0.00 0.00 38 1013.8
20260504230531 24 223 4.8 16.1 0.00 0.00 0.00 38 1013.8
20260504230054 24 242 4.8 25.7 0.00 0.00 0.00 37 1013.7
20260504225533 24 206 9.7 25.7 0.00 0.00 0.00 37 1013.7
20260504225032 24 209 8.0 19.3 0.00 0.00 0.00 38 1013.6
20260504224542 25 209 8.0 17.7 0.00 0.00 0.00 38 1013.6
20260504224032 25 252 8.0 17.7 0.00 0.00 0.00 38 1013.6
20260504223531 25 174 6.4 17.7 0.00 0.00 0.00 39 1013.7
20260504223042 25 126 3.2 9.7 0.00 0.00 0.00 38 1013.7
20260504222531 25 196 3.2 12.9 0.00 0.00 0.00 38 1013.7
20260504222029 25 131 4.8 14.5 0.00 0.00 0.00 39 1013.8
20260504221540 25 219 4.8 16.1 0.00 0.00 0.00 39 1013.8
20260504221030 25 205 3.2 16.1 0.00 0.00 0.00 39 1013.8
20260504220531 25 217 6.4 16.1 0.00 0.00 0.00 39 1013.7
20260504220039 25 200 4.8 20.9 0.00 0.00 0.00 38 1013.8
20260504215531 25 182 8.0 20.9 0.00 0.00 0.00 38 1013.7
20260504215031 25 227 3.2 17.7 0.00 0.00 0.00 38 1013.7
20260504214548 25 169 9.7 17.7 0.00 0.00 0.00 37 1013.8
20260504214032 25 231 8.0 17.7 0.00 0.00 0.00 38 1013.7
20260504213529 25 252 4.8 16.1 0.00 0.00 0.00 36 1013.8
20260504213043 25 209 9.7 16.1 0.00 0.00 0.00 36 1013.8
20260504212530 25 221 3.2 19.3 0.00 0.00 0.00 35 1013.6
20260504212031 26 190 6.4 19.3 0.00 0.00 0.00 35 1013.7
20260504211542 26 194 4.8 11.3 0.00 0.00 0.00 35 1013.7
20260504211029 26 194 4.8 11.3 0.00 0.00 0.00 35 1013.8
20260504210536 25 209 3.2 14.5 0.00 0.00 0.00 35 1013.6
20260504210045 26 91 4.8 14.5 0.00 0.00 0.00 35 1013.7
20260504205530 26 237 6.4 14.5 0.00 0.00 0.00 36 1013.8
20260504205030 26 171 4.8 16.1 0.00 0.00 0.00 36 1013.8
20260504204546 26 115 8.0 16.1 0.00 0.00 0.00 38 1013.8
20260504204031 26 242 4.8 16.1 0.00 0.00 0.00 38 1013.8
20260504203531 26 188 4.8 16.1 0.00 0.00 0.00 38 1013.9
20260504203052 25 213 4.8 14.5 0.00 0.00 0.00 36 1013.8
20260504202529 25 219 6.4 14.5 0.00 0.00 0.00 35 1013.9